TimeEDT,TemperatureF,Dew PointF,Humidity,Sea Level PressureIn,VisibilityMPH,Wind Direction,Wind SpeedMPH,Gust SpeedMPH,PrecipitationIn,Events,Conditions,WindDirDegrees,DateUTC
12:51 AM,44.1,36.0,73,29.90,7.0,West,8.1,19.6,0.01,Rain,Light Rain,270,2013-03-16 04:51:00
1:51 AM,44.1,37.9,79,29.89,8.0,WSW,10.4,23.0,0.03,Rain,Rain,250,2013-03-16 05:51:00
2:51 AM,44.1,37.9,79,29.85,10.0,Variable,3.5,-,0.02,,Overcast,0,2013-03-16 06:51:00
3:51 AM,39.2,37.4,93,29.79,8.0,Calm,Calm,-,N/A,,Mostly Cloudy,0,2013-03-16 07:51:00
4:51 AM,39.9,37.9,93,29.80,9.0,SSW,3.5,-,0.00,Rain,Light Rain,210,2013-03-16 08:51:00
5:51 AM,42.1,37.9,85,29.81,5.0,SSW,4.6,-,0.05,Rain,Rain,210,2013-03-16 09:51:00
6:51 AM,41.0,39.0,93,29.77,10.0,SSW,3.5,-,0.16,,Overcast,200,2013-03-16 10:51:00
7:51 AM,41.0,39.0,93,29.78,10.0,Calm,Calm,-,0.01,,Overcast,0,2013-03-16 11:51:00
8:51 AM,42.1,39.9,92,29.76,10.0,Calm,Calm,-,N/A,,Overcast,0,2013-03-16 12:51:00
9:51 AM,46.0,41.0,83,29.73,10.0,Calm,Calm,-,N/A,,Overcast,0,2013-03-16 13:51:00
10:51 AM,54.0,44.1,69,29.70,10.0,SW,15.0,-,0.00,Rain,Light Rain,230,2013-03-16 14:51:00
11:51 AM,53.1,46.9,80,29.67,6.0,South,9.2,16.1,0.08,Rain,Light Rain,180,2013-03-16 15:51:00
12:51 PM,55.9,48.0,75,29.67,10.0,SSW,11.5,-,0.00,,Scattered Clouds,200,2013-03-16 16:51:00
1:26 PM,57.2,46.4,67,29.66,10.0,WSW,18.4,28.8,N/A,,Overcast,240,2013-03-16 17:26:00
1:51 PM,55.9,46.0,69,29.68,10.0,West,15.0,27.6,N/A,,Overcast,260,2013-03-16 17:51:00
2:51 PM,53.1,46.0,77,29.69,10.0,WSW,13.8,21.9,N/A,,Overcast,250,2013-03-16 18:51:00
3:51 PM,55.0,46.9,74,29.69,4.0,WSW,11.5,23.0,0.00,Rain,Rain,250,2013-03-16 19:51:00
4:08 PM,55.4,46.4,72,29.68,10.0,West,9.2,-,0.04,,Overcast,270,2013-03-16 20:08:00
4:51 PM,55.0,46.9,74,29.71,10.0,West,6.9,17.3,0.04,,Overcast,280,2013-03-16 20:51:00
5:49 PM,55.4,46.4,72,29.71,10.0,WNW,10.4,-,N/A,,Overcast,290,2013-03-16 21:49:00
5:51 PM,55.9,46.0,69,29.73,10.0,West,10.4,16.1,N/A,,Overcast,260,2013-03-16 21:51:00
6:51 PM,55.9,44.1,64,29.76,10.0,West,11.5,21.9,N/A,,Mostly Cloudy,280,2013-03-16 22:51:00
7:51 PM,53.1,44.1,71,29.81,10.0,WNW,8.1,-,N/A,,Mostly Cloudy,290,2013-03-16 23:51:00
8:11 PM,50.0,44.6,82,29.81,9.0,North,8.1,-,N/A,,Overcast,360,2013-03-17 00:11:00
8:51 PM,48.9,43.0,80,29.87,8.0,North,8.1,-,N/A,,Mostly Cloudy,350,2013-03-17 00:51:00
9:51 PM,48.0,41.0,77,29.90,9.0,WNW,6.9,-,N/A,,Overcast,300,2013-03-17 01:51:00
10:07 PM,48.2,41.0,76,29.87,9.0,WNW,6.9,-,N/A,,Mostly Cloudy,300,2013-03-17 02:07:00
10:18 PM,48.2,41.0,76,29.88,8.0,North,4.6,-,N/A,,Mostly Cloudy,350,2013-03-17 02:18:00
10:51 PM,46.9,39.9,77,29.91,8.0,NW,6.9,-,N/A,,Overcast,320,2013-03-17 02:51:00
11:19 PM,46.4,39.2,76,29.89,9.0,WNW,5.8,-,N/A,,Overcast,290,2013-03-17 03:19:00
11:51 PM,45.0,39.0,80,29.92,8.0,WNW,4.6,-,N/A,,Mostly Cloudy,300,2013-03-17 03:51:00